Listing of Statistics for Run2-2018 (Created Sun Jun 24 07:05:10 CDT 2018)
User periods in this interval
05/30/2018 08:00 To 06/04/2018 08:00 120.00 Hours, Delivered Beam: 118.28 Hours, 2 Fault(s), 59.14 MTBF, 98.57% of Sched. Time 06/05/2018 08:00 To 06/11/2018 08:00 144.00 Hours, Delivered Beam: 143.38 Hours, 1 Fault(s),143.38 MTBF, 99.57% of Sched. Time 06/12/2018 08:00 To 06/18/2018 08:00 144.00 Hours, Delivered Beam: 142.81 Hours, 1 Fault(s),142.81 MTBF, 99.17% of Sched. Time 06/19/2018 08:00 To 06/24/2018 07:01 119.02 Hours, Delivered Beam: 118.18 Hours, 1 Fault(s),118.18 MTBF, 99.29% of Sched. Time
Total Amount of User Time in this interval 527.00 HoursDelivered Beam 522.65 Hours
Percentage of Scheduled Time (*) 99.17 %
Mean Time Between Faults (MTBF) 104.53 Hours
Downtime During Period 4.35 Hours
Total integrated Current During This Period 52.90 A-hr
Mean Fill Duration in Period 87.11 Hours
Faults per Day of Delivered Beam 0.23
Total Number of Faults 5
Valid fills Beginning in this Time Interval      
Fill # Start  End Duration
(min: 1.0)
Reason for Fill Termination Length of Downtime Downtime is associated with the end of a fill. The first fill of a period will have any downtime before the fill on the line above.

  0.00
# 1 05/30 08:00 To 05/31 09:57 25.95    Human Error {OTH] 1.05 Conditioned S:BM, recovered RF, refilled
# 2 05/31 11:00 To 06/01 06:17 19.29    S40B:H3 p.s. glitch 0.67 Investigation, refill
# 3 06/01 06:57 To 06/04 07:59 73.04    Int Dump: End of Period 0.00

  0.00
# 4 06/05 08:00 To 06/09 04:03 92.06    ANL power sag [OTH] 0.61 Investigation, refill
# 5 06/09 04:40 To 06/11 07:59 51.32    Int Dump: End of Period 0.00

  0.00
# 6 06/12 08:00 To 06/15 14:16 78.28    RTFB glitch [CTL] 1.19 Reseat dsp card, replace fan, refill ring
# 7 06/15 15:28 To 06/18 07:59 64.53    Int Dump: End of Period 0.00

  0.00
# 8 06/19 08:00 To 06/21 05:35 45.59    0.84
# 9 06/21 06:26 To 06/24 07:01 72.58    Fill Ongoing -0.00
Top-Up Mode Statistics
Target Current Range +/- 2.0, Minimum Injector Downtime = 8.0 minutes Total
Current in Range during Scheduled Topup Time 94.62 %
Current in Range during Delivered Beam Time 95.43 %
Injector Availability 95.16 %
Period Beginning 05/30/2018 08:00
Current in Range 85.19 %
Injector Availability 84.80 %
Out of Range at: 05/30/2018 17:00:32 to 05/30/2018 17:33:20 : 32.80 minutes
Injector downtime:05/30/2018 16:55:36 to 05/30/2018 17:33:16 : 37.67 minutes
Out of Range at: 06/01/2018 07:02:40 to 06/01/2018 15:31:04 : 508.40 minutes
Injector downtime:06/01/2018 06:57:44 to 06/01/2018 15:30:00 : 512.27 minutes
Out of Range at: 06/01/2018 17:28:48 to 06/01/2018 22:27:28 : 298.67 minutes
Injector downtime:06/01/2018 17:23:52 to 06/01/2018 22:27:24 : 303.53 minutes
Out of Range at: 06/02/2018 09:47:52 to 06/02/2018 10:40:32 : 52.67 minutes
Injector downtime:06/02/2018 09:42:56 to 06/02/2018 10:40:28 : 57.53 minutes
Out of Range at: 06/02/2018 16:39:20 to 06/02/2018 17:12:56 : 33.60 minutes
Injector downtime:06/02/2018 16:34:24 to 06/02/2018 17:12:52 : 38.47 minutes
Out of Range at: 06/03/2018 00:06:40 to 06/03/2018 02:11:20 : 124.67 minutes
Injector downtime:06/03/2018 00:01:44 to 06/03/2018 02:11:16 : 129.53 minutes
Period Beginning 06/05/2018 08:00
Current in Range 98.92 %
Injector Availability 98.70 %
Out of Range at: 06/06/2018 06:27:52 to 06/06/2018 06:37:12 : 9.33 minutes
Injector downtime:06/06/2018 06:22:56 to 06/06/2018 06:37:08 : 14.20 minutes
Out of Range at: 06/06/2018 09:26:24 to 06/06/2018 09:45:52 : 19.47 minutes
Injector downtime:06/06/2018 09:21:28 to 06/06/2018 09:45:48 : 24.33 minutes
Out of Range at: 06/07/2018 11:52:56 to 06/07/2018 12:05:28 : 12.53 minutes
Injector downtime:06/07/2018 11:48:00 to 06/07/2018 12:05:24 : 17.40 minutes
Out of Range at: 06/09/2018 21:31:20 to 06/09/2018 22:22:32 : 51.20 minutes
Injector downtime:06/09/2018 21:26:24 to 06/09/2018 22:22:28 : 56.07 minutes
Period Beginning 06/12/2018 08:00
Current in Range 97.97 %
Injector Availability 97.76 %
Out of Range at: 06/12/2018 22:18:24 to 06/13/2018 00:10:24 : 112.00 minutes
Injector downtime:06/12/2018 22:13:28 to 06/13/2018 00:08:00 : 114.53 minutes
Out of Range at: 06/15/2018 09:14:08 to 06/15/2018 09:16:32 : 2.40 minutes
Injector downtime:06/15/2018 09:06:08 to 06/15/2018 09:14:08 : ~ 8.00 minutes
Out of Range at: 06/15/2018 10:14:08 to 06/15/2018 10:30:56 : 16.80 minutes
Injector downtime:06/15/2018 10:09:12 to 06/15/2018 10:30:52 : 21.67 minutes
Out of Range at: 06/15/2018 19:36:24 to 06/15/2018 20:19:12 : 42.80 minutes
Injector downtime:06/15/2018 19:31:28 to 06/15/2018 20:19:08 : 47.67 minutes
Period Beginning 06/19/2018 08:00
Current in Range 98.36 %
Injector Availability 98.11 %
Out of Range at: 06/19/2018 11:39:28 to 06/19/2018 11:39:36 : 0.13 minutes
Injector downtime:06/19/2018 11:31:28 to 06/19/2018 11:39:28 : ~ 8.00 minutes
Out of Range at: 06/19/2018 12:08:24 to 06/19/2018 12:29:44 : 21.33 minutes
Injector downtime:06/19/2018 12:03:28 to 06/19/2018 12:29:40 : 26.20 minutes
Out of Range at: 06/21/2018 06:34:56 to 06/21/2018 06:42:56 : 8.00 minutes
Injector downtime:06/21/2018 06:26:56 to 06/21/2018 06:34:56 : ~ 8.00 minutes
Out of Range at: 06/22/2018 11:26:24 to 06/22/2018 12:53:28 : 87.07 minutes
Injector downtime:06/22/2018 11:21:28 to 06/22/2018 12:53:24 : 91.93 minutes
The information on this page is automatically generated and may contain errors. An official operations statistics page will be posted at the end of each user period.